"Pseudo-MPEC" for C0E5E35

Created 2022 Nov 26 21:22:06 UT using Find_Orb

Click here for an explanation of pseudo-MPECs

 
 Astrometry: 
     C0E5E35* C2022 11 23;RAstrometryqON^w\3=7,VK7W!g]D_?cE4+#^?5yK-NE%\Xwsd-V00
     C0E5E35  C2022 11 23k5DHk2`5qYRqm8NQWc*(J2\o7rMhF7vk'@:rRTa$3mOZ+#1foy7'V00
     C0E5E35  C2022 11 23[`rT4a%]k`W_X0mshZg=:r@%i`thQUI8NWLi1+Wl]p$GdxiDe,_7V00
     C0E5E35 mC2022 11 23A9HrHLdP)j?ovyLh]Bl*`DN+/4D!;b[6U*bXVM.9=(b9'4[d1(IqV00
     C0E5E35 mC2022 11 23Lw617=rpLVY*f,9Z#ABq1RABZj9aApw,J4ggredacted;`]:qpD]V00
     C0E5E35 mC2022 11 23V7qZ2:Q5%]0GrT:Yu0V[[D*:U0;9g,d!?X,.]i*;rEtG/*\DN_G3V00
     C0E5E35 mC2022 11 23y=BcX5P?+^X7F[dv6yK]//s-8XT%WLGA^]K#]WaoHa1)KfZ;e_RNV00
     C0E5E35 mC2022 11 26nL\,*j1clickY7!p$SM@Hv'4Y-meRUnG'PSe@?[7hereRLlHiJUDV00
     C0E5E35 mC2022 11 26WlE3EsieLDYs%cE]ytQS@Svk.l5@_oee(e^LPdJc]PLforOc=U8IV00
     C0E5E35 mC2022 11 26bX^#e+m+jbJ/E5Gq?2A(IK.Ar_00bexplanationrBd1F)9h`!9IV00
     C0E5E35 mC2022 11 26FNpqn\9P,d_M?1fOuNG=m2=v(0eh2$72,b^TDw+P;DXZ/x/*M1!@V00

Station data:
(V00) Kitt Peak-Bok  (N31.963125 W111.600190)  US/Arizona.  Observers T. A.
   Pruyne, B. M. Africano, E. J. Christensen, G. A. Farneth, D. C. Fuls, A.
   R. Gibbs, A. D. Grauer, H. Gröller, J. A. Johnson, R. A. Kowalski, S. M.
   Larson, G. J. Leonard, D. Rankin, R. L. Seaman, F. C. Shelly, K. W.
   Wierzchoś. 2.25-m reflector + CCD.

Orbital elements:  C0E5E35
   Perihelion 2022 Oct 10.50206 +/- 0.478 TT = 12:02:57 (JD 2459863.00206)
Epoch 2022 Nov 26.0 TT = JDT 2459909.5   Earth MOID: 0.1077   AutoNEOCP
M  33.55142205 +/- 0.22             (J2000 ecliptic)
n   0.72156791 +/- 0.00429          Peri.  311.23999 +/- 0.53
a   1.23107517 +/- 0.00487          Node    70.69141 +/- 0.022
e   0.1298876 +/- 0.0036            Incl.    7.64358 +/- 0.10
P   1.37/498.90d           H 26.6   G  0.15   U  9.1
q 1.07117369 +/- 0.00151    Q 1.39097664 +/- 0.00979
From 11 observations 2022 Nov. 23-26; mean residual 0".24
Residuals in arcseconds: 
221123 V00  .14+  .15+    221123 V00  .21+  .03+    221126 V00  .00   .07+    
221123 V00  .21+  .53-    221123 V00  .11+  .15-    221126 V00  .02+  .34+    
221123 V00  .41-  .41+    221123 V00  .00   .22-    221126 V00  .11+  .18-    
221123 V00  .27-  .31+    221126 V00  .13-  .24-    

Ephemerides (geocentric):
Date (UTC) HH   RA             Dec           delta  r     elong  mag " sig PA
---- --------  ------------   ------------  ------ ------ -----  --- --------
2022 11 26 21  05 09 32.925   +16 59 27.81  .12327 1.1065 165.2 23.1 .664   7
2022 11 26 22  05 09 28.471   +17 02 06.27  .12330 1.1066 165.2 23.1 .701   4
2022 11 26 23  05 09 24.013   +17 04 44.67  .12334 1.1067 165.3 23.1 .739   2
2022 11 27 00  05 09 19.552   +17 07 22.99  .12337 1.1067 165.4 23.1 .779   0
2022 11 27 01  05 09 15.086   +17 10 01.24  .12340 1.1068 165.5 23.1 .821 178
2022 11 27 02  05 09 10.617   +17 12 39.42  .12344 1.1068 165.5 23.0 .864 177
2022 11 27 03  05 09 06.144   +17 15 17.52  .12347 1.1069 165.6 23.0 .908 175
2022 11 27 04  05 09 01.668   +17 17 55.55  .12351 1.1070 165.7 23.0 .954 174
2022 11 27 05  05 08 57.188   +17 20 33.51  .12354 1.1070 165.7 23.0 1.00 172
2022 11 27 06  05 08 52.704   +17 23 11.39  .12357 1.1071 165.8 23.0 1.05 171
2022 11 27 07  05 08 48.216   +17 25 49.20  .12361 1.1071 165.9 23.0 1.10 170
2022 11 27 08  05 08 43.725   +17 28 26.93  .12365 1.1072 165.9 23.0 1.15 169
2022 11 27 09  05 08 39.230   +17 31 04.59  .12368 1.1073 166.0 23.0 1.20 168
2022 11 27 10  05 08 34.732   +17 33 42.16  .12372 1.1073 166.1 23.0 1.26 167
2022 11 27 11  05 08 30.231   +17 36 19.66  .12375 1.1074 166.1 23.0 1.31 167
2022 11 27 12  05 08 25.725   +17 38 57.08  .12379 1.1074 166.2 23.0 1.37 166
2022 11 27 13  05 08 21.217   +17 41 34.42  .12382 1.1075 166.3 23.0 1.42 165
2022 11 27 14  05 08 16.705   +17 44 11.69  .12386 1.1075 166.4 23.0 1.48 164
2022 11 27 15  05 08 12.189   +17 46 48.87  .12390 1.1076 166.4 23.0 1.54 164
2022 11 27 16  05 08 07.670   +17 49 25.97  .12393 1.1077 166.5 23.0 1.60 163
2022 11 27 17  05 08 03.148   +17 52 02.99  .12397 1.1077 166.6 23.0 1.66 163
2022 11 27 18  05 07 58.623   +17 54 39.92  .12401 1.1078 166.6 23.0 1.72 162
2022 11 27 19  05 07 54.094   +17 57 16.77  .12404 1.1078 166.7 23.0 1.78 162
2022 11 27 20  05 07 49.562   +17 59 53.54  .12408 1.1079 166.8 23.0 1.85 161
2022 11 27 21  05 07 45.026   +18 02 30.23  .12412 1.1080 166.8 23.0 1.91 161
2022 11 27 22  05 07 40.488   +18 05 06.83  .12416 1.1080 166.9 23.0 1.98 160
2022 11 27 23  05 07 35.946   +18 07 43.35  .12420 1.1081 167.0 23.0 2.04 160
2022 11 28 00  05 07 31.401   +18 10 19.78  .12423 1.1081 167.0 23.0 2.11 160
2022 11 28 01  05 07 26.853   +18 12 56.12  .12427 1.1082 167.1 23.0 2.18 159
2022 11 28 02  05 07 22.302   +18 15 32.38  .12431 1.1083 167.2 23.0 2.25 159
2022 11 28 03  05 07 17.748   +18 18 08.55  .12435 1.1083 167.2 23.0 2.32 159
2022 11 28 04  05 07 13.191   +18 20 44.63  .12439 1.1084 167.3 23.0 2.39 158
2022 11 28 05  05 07 08.631   +18 23 20.62  .12443 1.1084 167.4 23.0 2.46 158
2022 11 28 06  05 07 04.068   +18 25 56.53  .12447 1.1085 167.4 23.0 2.53 158
2022 11 28 07  05 06 59.502   +18 28 32.34  .12451 1.1086 167.5 23.0 2.60 158
2022 11 28 08  05 06 54.933   +18 31 08.06  .12455 1.1086 167.6 23.0 2.68 157
2022 11 28 09  05 06 50.361   +18 33 43.69  .12459 1.1087 167.7 23.0 2.75 157
2022 11 28 10  05 06 45.787   +18 36 19.23  .12463 1.1087 167.7 23.0 2.83 157
2022 11 28 11  05 06 41.209   +18 38 54.68  .12467 1.1088 167.8 23.0 2.90 157
2022 11 28 12  05 06 36.629   +18 41 30.04  .12471 1.1089 167.9 23.0 2.98 157
2022 11 28 13  05 06 32.046   +18 44 05.30  .12475 1.1089 167.9 23.0 3.06 156
2022 11 28 14  05 06 27.460   +18 46 40.47  .12479 1.1090 168.0 23.0 3.14 156
2022 11 28 15  05 06 22.871   +18 49 15.54  .12483 1.1090 168.1 23.0 3.22 156
2022 11 28 16  05 06 18.280   +18 51 50.52  .12487 1.1091 168.1 23.0 3.30 156
2022 11 28 17  05 06 13.686   +18 54 25.40  .12491 1.1092 168.2 23.0 3.38 156
2022 11 28 18  05 06 09.090   +18 57 00.19  .12495 1.1092 168.3 23.0 3.46 156
2022 11 28 19  05 06 04.490   +18 59 34.87  .12500 1.1093 168.3 23.0 3.54 155
2022 11 28 20  05 05 59.889   +19 02 09.47  .12504 1.1093 168.4 23.0 3.63 155